GEFSMW_con_probscp_258.txt.gz
Probability
4 7 10 12 10 7 7 7 6 4 3 3 2 1 0 0 0 0 0 0 1 2 4 5 5 4 4 4 3 3 3 3 3 3 3 3 2 1 0 0 0 0 0
5 7 10 11 9 7 6 7 6 4 3 3 3 1 0 0 0 0 0 0 0 1 3 5 4 3 2 1 1 2 3 3 3 3 3 3 2 1 0 0 0 0 0
5 6 8 9 8 6 6 5 4 3 3 3 3 2 1 0 0 0 0 1 1 1 3 4 4 2 1 0 0 1 3 3 3 3 3 2 2 1 0 0 0 0 0
6 6 7 8 6 5 4 4 3 3 3 4 3 3 1 1 0 0 1 2 2 3 3 3 3 2 1 0 0 1 2 3 3 3 1 1 1 0 0 0 0 0 0
9 8 8 7 6 5 4 3 3 3 4 4 4 3 3 2 1 0 1 3 3 3 3 3 3 3 1 0 0 1 2 3 3 2 1 0 0 0 0 0 0 0 0
10 10 9 8 7 6 5 4 3 3 3 4 3 3 3 3 2 2 2 3 3 3 3 3 3 3 2 1 1 1 2 3 3 1 0 0 0 0 0 0 0 0 0
10 10 9 9 8 7 5 4 3 3 3 3 3 3 3 3 3 3 3 3 3 3 3 3 3 3 3 2 1 1 2 2 2 1 0 0 0 0 0 0 0 0 0
9 9 9 9 9 7 5 3 3 3 3 3 3 3 3 3 3 3 3 3 3 3 3 3 3 3 3 3 2 1 1 1 1 0 0 0 0 0 0 0 0 0 0
8 8 7 7 8 7 4 3 3 3 3 3 4 3 3 3 3 3 3 3 3 3 3 3 3 3 3 3 3 1 0 0 0 0 0 0 0 0 0 0 0 0 0
6 7 6 5 6 6 5 4 3 3 3 4 4 4 3 3 3 3 3 3 3 3 3 3 3 3 3 3 3 2 1 0 0 0 0 0 0 0 0 0 0 0 0
4 6 5 4 4 5 5 5 4 3 3 4 4 4 4 3 3 3 3 3 3 3 3 3 3 3 3 3 3 3 2 1 0 0 0 0 0 0 0 0 0 0 0
1 3 3 3 3 4 5 4 3 3 4 4 5 6 5 4 3 3 3 3 3 3 3 3 3 3 3 3 3 3 3 2 1 0 0 0 0 0 0 0 0 0 0
0 1 2 3 3 4 4 4 4 4 5 6 6 6 6 5 4 3 3 3 3 3 3 3 3 3 3 3 3 3 3 3 2 1 0 0 0 0 0 0 0 0 0
0 0 1 2 3 4 5 6 6 6 6 6 6 6 6 6 5 4 3 3 3 3 3 3 3 3 3 3 3 3 3 3 3 1 0 0 0 0 0 0 0 0 0
0 0 0 1 2 4 5 6 6 6 6 6 6 6 6 6 6 4 3 3 3 3 3 3 3 3 3 3 3 3 3 3 3 2 1 0 0 0 0 0 0 0 0
0 0 0 0 1 2 4 5 6 6 6 6 6 6 6 6 5 4 3 3 3 3 3 3 3 3 3 3 3 3 3 3 3 2 1 0 0 0 0 0 0 0 0
0 0 0 0 0 1 1 3 4 4 5 6 6 6 6 5 4 3 3 3 3 3 3 3 3 3 3 3 2 2 3 3 3 2 1 0 0 0 0 0 0 0 0
0 0 0 0 0 0 0 1 3 3 4 4 4 5 5 4 3 3 3 3 3 3 3 3 3 3 3 2 1 1 2 3 3 2 1 0 0 0 0 0 0 0 0
0 0 0 0 0 0 0 1 2 3 3 3 3 4 4 3 3 3 3 3 2 2 2 2 2 3 2 1 0 1 2 3 3 2 1 0 0 0 0 0 0 0 0
0 0 0 0 0 0 0 1 2 3 3 3 3 3 3 3 3 3 2 1 1 1 1 1 1 1 1 1 0 0 1 3 3 1 0 0 0 0 0 0 0 0 0
0 0 0 0 0 0 0 1 2 3 3 3 3 3 3 3 2 2 1 0 0 0 0 0 0 0 0 0 0 0 1 2 2 1 0 0 0 0 0 0 0 0 0
0 0 0 0 0 0 0 1 2 3 3 3 3 3 2 1 1 1 0 0 0 0 0 0 0 0 0 0 0 0 0 1 2 2 1 0 0 0 0 0 0 0 0
0 0 0 1 1 1 0 1 1 1 1 2 2 1 1 0 0 0 0 0 0 0 0 0 0 0 0 0 0 0 0 0 1 1 1 0 0 0 0 0 0 0 0
0 0 0 1 2 2 1 0 0 0 0 1 1 0 0 0 0 0 0 0 0 0 0 0 0 0 0 0 0 0 0 0 0 0 0 0 0 0 0 0 0 0 0
0 0 0 1 1 2 1 0 0 0 0 0 0 0 0 0 0 0 0 0 0 0 0 0 0 0 0 0 0 0 0 0 0 0 0 0 0 0 0 0 0 0 0
0 0 0 0 0 1 1 0 0 0 0 0 0 0 0 0 0 0 0 0 0 0 0 0 0 0 0 0 0 0 0 0 0 0 0 0 0 0 0 0 0 0 0

GEFSMW_con_probscp_264.txt.gz
Probability
14 15 15 16 17 16 16 17 18 18 17 16 14 10 9 10 12 11 7 6 5 5 7 8 8 9 10 11 11 12 13 13 14 11 7 5 4 3 2 2 1 2 3
15 16 16 16 16 15 16 17 19 19 17 15 13 11 10 9 7 7 5 4 3 3 4 6 6 7 9 10 10 11 11 12 12 10 6 5 4 3 1 1 2 3 3
15 16 16 13 12 12 14 16 19 19 17 13 10 9 10 8 5 4 4 2 0 1 2 3 4 5 6 7 8 8 8 9 9 8 5 5 5 4 1 1 2 3 3
14 15 14 10 8 8 9 12 15 16 16 13 9 7 8 8 6 6 5 2 1 1 2 3 5 5 4 5 5 5 6 6 6 6 6 5 6 5 3 2 2 2 1
11 12 12 10 8 6 6 6 9 12 13 12 9 6 6 6 7 6 5 4 3 3 3 4 6 5 4 4 5 4 4 5 5 5 5 5 5 4 4 3 2 1 0
10 11 11 10 9 7 5 4 5 8 10 9 8 6 5 7 7 6 5 4 4 4 3 4 5 5 4 5 6 5 4 4 4 4 4 4 4 3 3 3 1 0 0
10 11 10 9 8 7 6 6 6 6 7 7 7 6 6 7 9 8 5 3 2 3 3 3 4 4 3 4 5 5 4 4 4 3 3 3 3 4 4 3 1 0 0
9 10 10 8 7 7 6 6 7 7 6 6 5 5 6 8 10 9 6 3 3 3 3 3 4 4 3 3 4 4 4 4 4 4 3 3 4 4 5 4 2 0 0
7 8 9 8 6 6 6 6 6 7 6 5 4 4 5 7 8 8 7 6 6 5 4 4 4 4 3 3 3 4 4 4 3 3 3 3 4 4 4 4 3 2 1
6 7 8 7 5 5 5 4 5 6 6 5 4 4 6 7 7 7 7 7 7 6 6 5 4 4 4 4 4 4 3 3 2 1 2 4 5 5 4 4 3 3 4
5 7 9 8 6 5 5 5 5 6 7 7 6 7 7 8 7 7 7 7 7 6 6 6 5 5 5 5 5 4 3 3 2 2 4 5 5 6 5 4 3 4 5
6 7 10 10 8 6 6 6 5 6 7 9 11 11 10 9 9 9 9 8 7 7 6 6 6 5 5 5 4 3 3 3 3 4 5 6 6 6 6 5 4 3 4
6 8 10 12 10 8 8 8 7 7 8 11 14 14 12 10 9 9 9 9 9 8 8 8 7 6 6 5 4 3 4 4 4 4 5 6 6 5 4 4 3 3 4
6 7 10 12 11 10 10 11 11 10 11 12 13 14 12 9 8 9 9 10 10 10 11 10 8 7 6 5 4 4 4 4 4 4 5 5 4 4 3 3 3 4 5
4 5 9 12 12 12 13 14 14 14 13 12 12 12 11 10 10 11 11 11 11 10 10 11 9 8 6 4 5 5 5 5 4 4 5 5 4 3 3 3 3 4 5
1 2 6 10 11 12 14 15 15 15 15 14 12 10 10 11 12 12 12 11 11 9 8 9 9 7 6 4 4 5 5 5 4 5 6 6 5 4 3 2 2 2 3
0 2 5 7 9 10 12 14 15 15 15 14 12 10 10 11 12 11 11 11 11 10 8 8 7 7 6 4 3 4 4 4 4 6 6 6 6 4 3 2 1 1 1
2 3 5 6 7 8 9 11 14 15 14 13 11 10 11 11 11 10 10 11 11 10 10 9 7 7 6 4 3 3 3 3 4 6 6 6 6 5 4 4 3 1 1
4 4 4 5 6 6 7 9 10 11 10 9 9 10 12 12 10 10 11 12 10 10 10 10 8 7 6 4 2 1 3 3 4 6 6 6 5 5 4 4 5 4 3
5 4 3 4 5 6 7 7 7 6 6 7 8 10 11 11 10 11 12 12 11 10 10 10 9 7 6 4 1 1 2 3 4 5 6 5 4 3 2 3 5 6 6
4 4 4 4 5 5 6 7 6 4 4 5 6 8 10 10 10 10 12 12 11 10 10 10 9 7 6 5 2 1 2 3 4 5 6 5 2 1 0 2 4 5 5
5 4 5 5 5 6 7 7 6 5 4 4 5 6 8 9 9 9 10 11 11 10 10 10 9 7 6 5 2 1 1 2 4 5 6 4 1 0 0 0 1 2 2
5 5 6 6 6 7 7 6 5 4 3 4 4 4 6 8 8 8 8 9 9 9 9 10 9 7 6 5 3 1 0 1 2 4 4 2 1 0 0 0 0 0 0
5 5 5 6 6 6 6 6 5 3 3 3 4 4 4 6 8 7 7 7 7 8 8 9 8 6 5 5 3 1 0 0 0 1 1 1 1 0 0 0 0 0 0
5 4 4 5 5 5 5 6 5 4 3 3 3 3 3 4 6 6 6 6 6 6 6 6 5 4 3 2 1 0 0 0 0 0 0 0 1 0 0 0 0 0 0
4 4 4 4 4 4 4 5 5 5 4 3 3 3 3 4 5 6 6 5 4 4 3 3 2 1 1 0 0 0 0 0 0 0 0 0 1 0 0 0 0 0 0

GEFSMW_con_probscp_270.txt.gz
Probability
19 23 28 31 33 35 37 36 33 28 25 21 18 16 19 19 17 17 18 18 19 19 16 14 17 18 16 15 14 13 12 12 13 12 11 8 7 8 11 12 12 12 13
20 23 27 29 31 33 33 34 32 27 23 20 17 17 19 19 15 15 17 18 18 16 12 12 14 16 15 15 14 13 12 11 12 12 11 8 6 6 8 10 10 11 12
20 22 24 26 26 27 27 28 28 25 21 19 16 16 16 15 13 14 16 18 17 13 9 10 11 12 13 13 13 11 11 10 11 12 11 8 6 5 6 7 8 9 10
17 20 22 23 22 20 21 24 25 24 21 17 15 13 11 10 11 14 17 18 16 11 9 9 9 9 10 10 9 8 8 8 9 10 9 7 6 5 5 5 5 6 7
14 17 20 21 19 15 17 20 23 24 22 17 14 12 9 9 10 13 15 16 13 9 7 7 7 7 8 7 6 6 6 6 6 7 6 4 3 4 3 2 3 4 5
13 15 18 18 16 14 14 17 19 21 20 16 14 12 12 11 10 12 14 14 11 9 6 5 6 6 5 5 5 5 5 5 5 6 5 3 2 3 2 1 1 3 4
16 17 17 16 15 14 14 14 14 16 16 13 12 13 13 13 11 12 12 11 10 10 9 7 5 4 4 5 7 7 5 5 6 6 5 4 3 3 2 1 0 1 2
18 17 16 14 13 14 14 12 12 13 13 11 10 12 13 12 11 11 11 9 8 10 11 9 5 4 4 5 7 7 6 7 7 6 5 5 5 4 4 3 2 1 1
15 13 12 11 10 12 13 12 13 13 11 9 9 10 10 9 9 10 10 9 7 7 10 10 7 6 5 5 6 5 5 7 7 5 4 5 5 4 5 5 4 2 2
12 11 10 9 8 10 12 12 13 12 9 7 7 8 9 10 10 11 12 10 7 7 9 10 9 8 7 7 6 5 5 7 8 6 4 4 4 4 4 6 6 5 4
14 14 12 11 10 10 11 12 13 12 9 7 7 9 11 12 12 12 13 12 10 9 10 10 9 8 8 9 8 6 6 8 8 7 6 5 4 3 4 5 6 5 4
19 18 16 14 13 12 12 12 14 14 12 10 10 12 14 14 13 13 13 12 11 10 11 10 10 9 9 10 9 7 7 7 7 7 6 6 6 5 5 5 6 5 4
22 20 19 17 15 14 14 15 15 15 13 12 12 14 15 16 15 14 13 12 11 11 11 11 10 10 10 10 9 7 6 6 6 6 6 7 7 7 6 6 5 4 4
25 23 21 20 17 16 17 17 16 14 13 13 13 14 16 17 17 15 13 12 12 12 12 11 11 10 10 9 8 7 7 7 8 8 7 7 7 7 7 6 6 5 5
23 22 22 22 19 17 18 18 17 15 14 13 13 14 15 17 16 14 13 12 12 11 11 11 11 10 9 8 7 7 7 8 9 9 8 7 6 6 6 6 6 6 6
18 18 19 20 18 17 18 18 17 16 14 13 12 13 14 14 14 13 13 12 11 10 10 11 11 10 8 6 5 5 6 7 8 9 8 7 6 5 5 4 4 4 5
16 17 18 18 18 17 16 15 15 15 14 12 12 12 13 13 14 14 14 13 12 11 11 11 10 9 6 4 3 3 4 5 6 7 7 7 6 6 5 4 4 3 3
18 18 17 17 17 16 14 13 13 13 12 12 12 12 12 13 13 14 15 16 15 14 12 11 10 9 6 4 3 3 3 4 6 6 6 6 6 6 6 6 5 4 4
20 19 17 17 16 14 13 13 12 11 11 12 12 12 13 12 12 13 15 17 18 16 13 11 11 10 8 5 3 3 3 4 6 6 6 6 6 6 6 6 6 6 6
21 19 17 16 15 14 14 14 13 11 10 10 11 12 13 12 12 13 15 17 17 15 12 11 12 12 10 6 3 2 3 5 6 6 6 6 6 5 4 5 6 6 6
20 18 16 15 14 14 15 14 12 11 10 10 10 11 12 11 11 13 16 16 15 13 12 11 12 13 11 7 2 1 3 4 5 6 6 6 4 3 2 3 5 5 5
17 16 15 15 14 14 15 13 11 11 11 10 9 10 11 10 9 11 14 15 14 13 12 11 11 13 11 7 3 1 2 3 4 4 5 5 3 1 0 1 3 3 2
15 16 15 14 14 14 14 12 10 10 10 10 10 10 10 9 7 8 10 11 12 10 9 8 9 10 9 6 3 1 1 1 2 3 4 3 1 0 0 0 1 1 0
15 15 14 13 14 15 13 12 10 8 9 10 10 9 7 6 6 7 8 9 9 7 6 6 7 7 6 5 3 2 1 1 2 3 3 2 1 0 0 0 0 0 0
17 16 15 13 12 12 11 10 8 8 9 9 9 6 4 4 5 7 8 7 6 5 5 5 6 6 5 4 3 3 2 2 2 2 3 2 1 0 0 0 0 0 0
20 19 16 12 9 9 9 8 7 9 10 9 7 4 3 5 6 7 6 5 4 3 3 4 4 4 4 3 2 2 2 1 1 2 3 3 1 0 0 0 0 0 0

GEFSMW_con_probscp_276.txt.gz
Probability
15 17 17 16 18 17 17 18 18 16 16 13 11 9 7 4 3 3 4 6 6 4 3 3 3 2 1 0 0 0 0 0 0 0 0 0 0 0 0 0 0 0 0
14 16 16 16 17 18 18 19 18 17 14 10 9 8 6 4 4 4 4 6 6 4 3 3 3 2 1 0 0 0 0 0 0 0 0 0 0 0 0 0 0 0 0
13 14 15 15 16 16 17 17 17 16 13 9 7 7 6 5 4 4 4 5 5 4 3 3 3 2 1 0 0 0 0 0 0 0 0 0 0 0 0 0 0 1 1
12 13 14 15 15 14 13 13 15 15 12 8 6 6 6 6 5 4 4 4 4 3 2 2 2 1 0 0 0 0 0 0 0 0 0 0 0 0 0 0 0 0 0
11 12 13 14 14 12 10 11 12 12 10 6 3 4 4 5 4 3 2 2 2 2 2 2 2 1 0 0 0 0 0 0 0 0 0 0 0 0 0 0 0 0 0
10 11 12 13 12 10 9 9 9 8 6 3 1 1 2 2 1 1 1 1 1 1 1 1 1 0 0 0 0 0 0 0 0 0 0 0 0 0 0 0 0 0 0
9 11 12 11 10 9 8 7 6 5 3 1 1 1 0 0 0 0 0 0 0 0 0 0 0 0 0 0 0 0 0 0 0 0 0 0 0 0 0 0 0 0 0
7 9 10 10 10 9 7 6 6 4 3 2 1 0 0 0 0 0 0 0 0 0 0 0 0 0 0 0 0 0 0 0 0 0 0 0 0 0 0 0 0 0 0
5 6 8 9 10 9 7 6 6 5 4 3 1 0 0 0 0 0 0 0 0 0 0 0 1 1 1 1 1 1 0 0 0 0 0 0 0 0 0 0 0 0 0
3 4 6 8 9 8 6 5 5 5 6 5 3 2 1 1 1 1 0 0 0 0 1 1 2 2 2 1 1 1 0 0 0 0 0 0 0 0 0 0 0 0 0
4 4 5 6 7 7 5 4 4 5 5 6 5 5 4 3 3 2 1 0 0 1 2 2 3 4 3 2 2 1 1 1 1 1 0 0 0 0 0 0 0 0 0
3 5 5 5 5 5 4 4 4 4 4 4 5 6 6 5 4 3 2 1 1 1 2 3 3 4 4 3 3 2 2 2 2 2 1 1 1 1 0 0 0 0 0
2 4 5 4 3 3 3 3 3 3 3 3 4 5 6 6 5 4 3 3 2 3 3 2 2 3 3 3 3 3 3 3 3 3 3 2 2 2 1 1 0 0 0
3 4 5 5 4 3 2 2 1 1 2 3 3 4 4 5 6 5 4 4 4 4 4 3 3 3 3 3 3 3 3 3 3 3 3 3 3 3 3 2 1 1 1
3 4 5 6 5 4 3 3 2 1 2 3 4 4 4 4 4 5 5 4 5 5 4 4 4 4 3 3 3 3 3 3 3 3 3 3 3 3 3 3 3 2 2
3 3 5 6 6 4 4 4 3 3 3 4 5 5 4 3 3 4 4 4 4 5 5 4 4 4 3 3 3 3 3 3 3 3 3 3 3 3 3 3 3 2 2
3 3 4 6 5 4 4 3 3 4 4 4 5 5 4 3 3 3 3 4 4 5 5 5 5 5 4 3 3 2 3 3 3 3 3 3 3 3 3 3 2 2 2
3 3 3 4 5 6 5 4 4 5 5 5 5 5 4 3 3 3 3 3 3 4 5 6 6 6 4 3 2 2 2 3 3 3 3 3 3 3 3 3 3 2 2
1 2 2 3 5 8 8 6 6 6 6 6 6 5 4 3 3 3 3 3 3 3 4 5 6 6 5 4 2 2 2 3 3 3 3 3 3 3 3 3 3 3 3
1 1 2 3 5 8 9 8 6 6 6 6 6 5 4 3 3 3 3 3 3 3 3 4 5 6 6 4 3 2 2 3 3 3 3 3 3 3 3 3 3 3 3
1 2 3 4 5 6 7 6 5 4 5 6 5 4 3 3 3 3 3 3 3 3 3 3 4 6 6 5 3 1 2 3 3 3 3 3 3 3 3 3 3 3 3
0 1 3 5 5 6 6 6 4 3 4 4 3 3 2 2 2 2 3 3 3 3 3 3 4 5 5 4 3 1 1 2 3 3 3 3 3 1 1 2 2 2 2
0 2 4 4 4 5 6 5 4 3 3 2 1 1 1 1 1 1 1 2 2 3 3 3 3 3 4 3 3 2 1 1 2 3 3 3 2 1 1 1 1 1 1
1 3 4 4 3 4 4 4 3 3 3 1 0 0 0 0 0 0 0 1 1 1 2 1 1 1 2 3 3 3 2 1 2 3 3 3 1 1 1 0 0 0 0
2 3 3 3 2 3 3 3 3 3 2 1 0 0 0 0 0 0 0 0 0 0 0 0 0 0 1 1 2 2 2 2 2 2 3 3 1 1 1 1 0 0 0
3 3 3 2 1 2 3 3 3 3 2 1 0 0 0 0 0 0 0 0 0 0 0 0 0 0 0 0 1 1 1 1 1 2 3 3 2 2 2 2 1 0 0